Time,TemperatureF,DewpointF,PressureIn,WindDirection,WindDirectionDegrees,WindSpeedMPH,WindSpeedGustMPH,Humidity,HourlyPrecipIn,Conditions,Clouds,dailyrainin,SoftwareType,DateUTC
2013-03-19 00:22:00,48.0,47.0,-100.00,North,360,-999.0,-999.0,97,-99.99,,,-99.99,,2013-03-19 07:22:00,
2013-03-19 00:32:00,48.0,47.0,-100.00,North,360,-999.0,-999.0,97,-99.99,,,-99.99,,2013-03-19 07:32:00,
2013-03-19 00:42:00,48.0,47.0,-100.00,North,360,-999.0,-999.0,97,-99.99,,,-99.99,,2013-03-19 07:42:00,
2013-03-19 00:52:00,48.0,47.0,-100.00,North,360,-999.0,-999.0,96,-99.99,,,-99.99,,2013-03-19 07:52:00,
2013-03-19 01:02:00,48.0,47.0,-100.00,North,360,-999.0,-999.0,96,-99.99,,,-99.99,,2013-03-19 08:02:00,
2013-03-19 01:12:00,48.0,47.0,-100.00,North,360,-999.0,-999.0,96,-99.99,,,-99.99,,2013-03-19 08:12:00,
2013-03-19 01:22:00,48.0,47.0,-100.00,North,360,-999.0,-999.0,95,-99.99,,,-99.99,,2013-03-19 08:22:00,
2013-03-19 01:32:00,48.0,47.0,-100.00,North,360,-999.0,-999.0,95,-99.99,,,-99.99,,2013-03-19 08:32:00,
2013-03-19 01:42:00,48.0,47.0,-100.00,North,360,-999.0,-999.0,95,-99.99,,,-99.99,,2013-03-19 08:42:00,
2013-03-19 01:52:00,48.0,29.0,-100.00,North,360,-999.0,-999.0,47,-99.99,,,-99.99,,2013-03-19 08:52:00,
2013-03-19 02:02:00,48.0,29.0,-100.00,North,360,-999.0,-999.0,47,-99.99,,,-99.99,,2013-03-19 09:02:00,
2013-03-19 02:22:00,49.0,48.0,-100.00,North,360,-999.0,-999.0,97,-99.99,,,-99.99,,2013-03-19 09:22:00,
2013-03-19 02:32:00,49.0,48.0,-100.00,North,360,-999.0,-999.0,97,-99.99,,,-99.99,,2013-03-19 09:32:00,
2013-03-19 02:43:00,49.0,48.0,-100.00,North,360,-999.0,-999.0,97,-99.99,,,-99.99,,2013-03-19 09:43:00,
2013-03-19 02:53:00,48.0,47.0,-100.00,NNE,22,-999.0,-999.0,97,-99.99,,,-99.99,,2013-03-19 09:53:00,
2013-03-19 03:03:00,48.0,47.0,-100.00,NNE,22,-999.0,-999.0,97,-99.99,,,-99.99,,2013-03-19 10:03:00,
2013-03-19 03:12:00,48.0,47.0,-100.00,NNE,22,-999.0,-999.0,97,-99.99,,,-99.99,,2013-03-19 10:12:00,
2013-03-19 03:22:00,48.0,48.0,-100.00,NNE,22,-999.0,-999.0,99,-99.99,,,-99.99,,2013-03-19 10:22:00,
2013-03-19 03:32:00,48.0,48.0,-100.00,NNE,22,-999.0,-999.0,99,-99.99,,,-99.99,,2013-03-19 10:32:00,
2013-03-19 03:42:00,48.0,48.0,-100.00,NNE,22,-999.0,-999.0,99,-99.99,,,-99.99,,2013-03-19 10:42:00,
2013-03-19 03:53:00,50.0,47.0,-100.00,North,9,-999.0,-999.0,91,-99.99,,,0.00,,2013-03-19 10:53:00,
2013-03-19 04:02:00,50.0,47.0,-100.00,North,9,-999.0,-999.0,91,-99.99,,,0.00,,2013-03-19 11:02:00,
2013-03-19 04:12:00,50.0,47.0,-100.00,North,9,-999.0,-999.0,91,-99.99,,,0.00,,2013-03-19 11:12:00,
2013-03-19 04:22:00,50.0,48.0,-100.00,North,2,-999.0,-999.0,93,-99.99,,,-99.99,,2013-03-19 11:22:00,
2013-03-19 04:32:00,50.0,48.0,-100.00,North,2,-999.0,-999.0,93,-99.99,,,-99.99,,2013-03-19 11:32:00,
2013-03-19 04:43:00,50.0,48.0,-100.00,North,2,-999.0,-999.0,93,-99.99,,,-99.99,,2013-03-19 11:43:00,
2013-03-19 04:52:00,50.0,48.0,-100.00,NNE,14,-999.0,-999.0,93,-99.99,,,-99.99,,2013-03-19 11:52:00,
2013-03-19 05:02:00,50.0,48.0,-100.00,NNE,14,-999.0,-999.0,93,-99.99,,,-99.99,,2013-03-19 12:02:00,
2013-03-19 05:12:00,50.0,48.0,-100.00,NNE,14,-999.0,-999.0,93,-99.99,,,-99.99,,2013-03-19 12:12:00,
2013-03-19 05:22:00,48.0,47.0,-100.00,NNE,15,-999.0,-999.0,97,-99.99,,,-99.99,,2013-03-19 12:22:00,
2013-03-19 05:32:00,48.0,47.0,-100.00,NNE,15,-999.0,-999.0,97,-99.99,,,-99.99,,2013-03-19 12:32:00,
2013-03-19 05:43:00,48.0,47.0,-100.00,NNE,15,-999.0,-999.0,97,-99.99,,,-99.99,,2013-03-19 12:43:00,
2013-03-19 05:52:00,47.0,46.0,-100.00,NNE,16,-999.0,-999.0,98,-99.99,,,-99.99,,2013-03-19 12:52:00,
2013-03-19 06:02:00,47.0,46.0,-100.00,NNE,16,-999.0,-999.0,98,-99.99,,,-99.99,,2013-03-19 13:02:00,
2013-03-19 06:12:00,47.0,46.0,-100.00,NNE,16,-999.0,-999.0,98,-99.99,,,-99.99,,2013-03-19 13:12:00,
2013-03-19 06:22:00,47.0,46.0,-100.00,NNE,15,-999.0,-999.0,95,-99.99,,,-99.99,,2013-03-19 13:22:00,
2013-03-19 06:32:00,47.0,46.0,-100.00,NNE,15,-999.0,-999.0,95,-99.99,,,-99.99,,2013-03-19 13:32:00,
2013-03-19 06:42:00,47.0,46.0,-100.00,NNE,15,-999.0,-999.0,95,-99.99,,,-99.99,,2013-03-19 13:42:00,
2013-03-19 06:52:00,47.0,45.0,-100.00,North,2,-999.0,-999.0,93,-99.99,,,-99.99,,2013-03-19 13:52:00,
2013-03-19 07:01:00,47.0,45.0,-100.00,North,2,-999.0,-999.0,93,-99.99,,,-99.99,,2013-03-19 14:01:00,
2013-03-19 07:12:00,47.0,45.0,-100.00,North,2,-999.0,-999.0,93,-99.99,,,-99.99,,2013-03-19 14:12:00,
2013-03-19 07:22:00,47.0,45.0,-100.00,North,2,-999.0,-999.0,93,-99.99,,,-99.99,,2013-03-19 14:22:00,
2013-03-19 07:31:00,47.0,46.0,-100.00,North,2,-999.0,-999.0,97,-99.99,,,-99.99,,2013-03-19 14:31:00,
2013-03-19 07:32:00,47.0,45.0,-100.00,North,2,-999.0,-999.0,93,-99.99,,,-99.99,,2013-03-19 14:32:00,
2013-03-19 07:42:00,47.0,45.0,-100.00,North,2,-999.0,-999.0,93,-99.99,,,-99.99,,2013-03-19 14:42:00,
2013-03-19 07:52:00,47.0,46.0,-100.00,North,2,-999.0,-999.0,97,-99.99,,,-99.99,,2013-03-19 14:52:00,
2013-03-19 08:02:00,47.0,46.0,-100.00,North,2,-999.0,-999.0,97,-99.99,,,-99.99,,2013-03-19 15:02:00,
2013-03-19 08:12:00,47.0,46.0,-100.00,North,2,-999.0,-999.0,97,-99.99,,,-99.99,,2013-03-19 15:12:00,
2013-03-19 08:22:00,47.0,46.0,-100.00,North,2,-999.0,-999.0,97,-99.99,,,-99.99,,2013-03-19 15:22:00,
2013-03-19 08:53:00,54.0,50.0,-100.00,East,101,-999.0,-999.0,86,-99.99,,,-99.99,,2013-03-19 15:53:00,
2013-03-19 09:03:00,54.0,50.0,-100.00,East,101,-999.0,-999.0,86,-99.99,,,-99.99,,2013-03-19 16:03:00,
2013-03-19 09:23:00,58.0,52.0,-100.00,ESE,121,-999.0,-999.0,79,-99.99,,,-99.99,,2013-03-19 16:23:00,
2013-03-19 09:33:00,58.0,52.0,-100.00,ESE,121,-999.0,-999.0,79,-99.99,,,-99.99,,2013-03-19 16:33:00,
2013-03-19 09:54:00,60.0,53.0,-100.00,SSE,163,-999.0,-999.0,79,-99.99,,,-99.99,,2013-03-19 16:54:00,
2013-03-19 10:02:00,60.0,53.0,-100.00,SSE,163,-999.0,-999.0,79,-99.99,,,-99.99,,2013-03-19 17:02:00,
2013-03-19 10:23:00,62.0,54.0,-100.00,SSE,161,-999.0,-999.0,75,-99.99,,,-99.99,,2013-03-19 17:23:00,
2013-03-19 10:34:00,62.0,54.0,-100.00,SSE,161,-999.0,-999.0,75,-99.99,,,-99.99,,2013-03-19 17:34:00,
2013-03-19 10:53:00,64.0,55.0,-100.00,SSE,162,-999.0,-999.0,73,-99.99,,,-99.99,,2013-03-19 17:53:00,
2013-03-19 11:02:00,64.0,55.0,-100.00,SSE,162,-999.0,-999.0,73,-99.99,,,-99.99,,2013-03-19 18:02:00,
2013-03-19 11:23:00,69.0,56.0,-100.00,SSW,213,-999.0,-999.0,64,-99.99,,,-99.99,,2013-03-19 18:23:00,
2013-03-19 11:33:00,69.0,56.0,-100.00,SSW,213,-999.0,-999.0,64,-99.99,,,-99.99,,2013-03-19 18:33:00,
2013-03-19 11:53:00,71.0,56.0,-100.00,South,179,-999.0,-999.0,60,-99.99,,,-99.99,,2013-03-19 18:53:00,
2013-03-19 12:02:00,71.0,56.0,-100.00,South,179,-999.0,-999.0,60,-99.99,,,-99.99,,2013-03-19 19:02:00,
2013-03-19 12:22:00,70.0,57.0,-100.00,SW,229,-999.0,-999.0,63,-99.99,,,-99.99,,2013-03-19 19:22:00,
2013-03-19 12:32:00,70.0,57.0,-100.00,SW,229,-999.0,-999.0,63,-99.99,,,-99.99,,2013-03-19 19:32:00,
2013-03-19 12:53:00,70.0,56.0,-100.00,SSE,151,-999.0,-999.0,61,-99.99,,,-99.99,,2013-03-19 19:53:00,
2013-03-19 13:02:00,70.0,56.0,-100.00,SSE,151,-999.0,-999.0,61,-99.99,,,-99.99,,2013-03-19 20:02:00,
2013-03-19 13:12:00,70.0,56.0,-100.00,SSE,151,-999.0,-999.0,61,-99.99,,,-99.99,,2013-03-19 20:12:00,
2013-03-19 13:22:00,71.0,55.0,-100.00,SW,217,-999.0,-999.0,57,-99.99,,,-99.99,,2013-03-19 20:22:00,
2013-03-19 13:32:00,71.0,55.0,-100.00,SW,217,-999.0,-999.0,57,-99.99,,,-99.99,,2013-03-19 20:32:00,
2013-03-19 13:52:00,70.0,55.0,-100.00,WSW,248,-999.0,-999.0,59,-99.99,,,-99.99,,2013-03-19 20:52:00,
2013-03-19 14:01:00,70.0,55.0,-100.00,WSW,248,-999.0,-999.0,59,-99.99,,,-99.99,,2013-03-19 21:01:00,
2013-03-19 14:11:00,70.0,55.0,-100.00,WSW,248,-999.0,-999.0,59,-99.99,,,-99.99,,2013-03-19 21:11:00,
2013-03-19 14:22:00,69.0,55.0,-100.00,WSW,257,-999.0,-999.0,60,-99.99,,,-99.99,,2013-03-19 21:22:00,
2013-03-19 14:33:00,69.0,55.0,-100.00,WSW,257,-999.0,-999.0,60,-99.99,,,-99.99,,2013-03-19 21:33:00,
2013-03-19 14:43:00,69.0,55.0,-100.00,WSW,257,-999.0,-999.0,60,-99.99,,,-99.99,,2013-03-19 21:43:00,
2013-03-19 14:53:00,68.0,49.0,-100.00,WNW,283,-999.0,-999.0,50,-99.99,,,-99.99,,2013-03-19 21:53:00,
2013-03-19 15:02:00,68.0,49.0,-100.00,WNW,283,-999.0,-999.0,50,-99.99,,,-99.99,,2013-03-19 22:02:00,
2013-03-19 15:12:00,68.0,49.0,-100.00,WNW,283,-999.0,-999.0,50,-99.99,,,-99.99,,2013-03-19 22:12:00,
2013-03-19 15:23:00,69.0,50.0,-100.00,West,271,-999.0,-999.0,50,-99.99,,,-99.99,,2013-03-19 22:23:00,
2013-03-19 15:32:00,69.0,50.0,-100.00,West,271,-999.0,-999.0,50,-99.99,,,-99.99,,2013-03-19 22:32:00,
2013-03-19 15:43:00,69.0,50.0,-100.00,West,271,-999.0,-999.0,50,-99.99,,,-99.99,,2013-03-19 22:43:00,
2013-03-19 15:53:00,67.0,41.0,-100.00,West,273,-999.0,-999.0,38,-99.99,,,-99.99,,2013-03-19 22:53:00,
2013-03-19 16:02:00,67.0,41.0,-100.00,West,273,-999.0,-999.0,38,-99.99,,,-99.99,,2013-03-19 23:02:00,
2013-03-19 16:22:00,69.0,50.0,-100.00,West,272,-999.0,-999.0,51,-99.99,,,-99.99,,2013-03-19 23:22:00,
2013-03-19 16:32:00,69.0,50.0,-100.00,West,272,-999.0,-999.0,51,-99.99,,,-99.99,,2013-03-19 23:32:00,
2013-03-19 18:23:00,60.0,-99.9,-100.00,WSW,237,-999.0,-999.0,-999,-99.99,,,-99.99,,2013-03-20 01:23:00,
2013-03-19 18:33:00,60.0,-99.9,-100.00,WSW,237,-999.0,-999.0,-999,-99.99,,,-99.99,,2013-03-20 01:33:00,
2013-03-19 18:43:00,60.0,-99.9,-100.00,WSW,237,-999.0,-999.0,-999,-99.99,,,-99.99,,2013-03-20 01:43:00,
2013-03-19 18:52:00,63.0,50.0,-100.00,North,360,-999.0,-999.0,63,-99.99,,,-99.99,,2013-03-20 01:52:00,
2013-03-19 19:02:00,63.0,50.0,-100.00,North,360,-999.0,-999.0,63,-99.99,,,-99.99,,2013-03-20 02:02:00,
2013-03-19 19:11:00,63.0,50.0,-100.00,North,360,-999.0,-999.0,63,-99.99,,,-99.99,,2013-03-20 02:11:00,
2013-03-19 19:21:00,55.0,50.0,-100.00,SE,134,-999.0,-999.0,82,-99.99,,,-99.99,,2013-03-20 02:21:00,
2013-03-19 19:32:00,55.0,50.0,-100.00,SE,134,-999.0,-999.0,82,-99.99,,,-99.99,,2013-03-20 02:32:00,
2013-03-19 19:43:00,55.0,50.0,-100.00,SE,134,-999.0,-999.0,82,-99.99,,,-99.99,,2013-03-20 02:43:00,
2013-03-19 19:52:00,53.0,50.0,-100.00,SE,133,-999.0,-999.0,90,-99.99,,,-99.99,,2013-03-20 02:52:00,
2013-03-19 20:01:00,53.0,50.0,-100.00,SE,133,-999.0,-999.0,90,-99.99,,,-99.99,,2013-03-20 03:01:00,
2013-03-19 20:12:00,53.0,50.0,-100.00,SE,133,-999.0,-999.0,90,-99.99,,,-99.99,,2013-03-20 03:12:00,
2013-03-19 20:22:00,52.0,50.0,-100.00,WNW,282,-999.0,-999.0,94,-99.99,,,-99.99,,2013-03-20 03:22:00,
2013-03-19 20:31:00,51.0,49.0,-100.00,NNW,345,-999.0,-999.0,93,-99.99,,,-99.99,,2013-03-20 03:31:00,
2013-03-19 20:33:00,52.0,50.0,-100.00,WNW,282,-999.0,-999.0,94,-99.99,,,-99.99,,2013-03-20 03:33:00,
2013-03-19 20:43:00,52.0,50.0,-100.00,WNW,282,-999.0,-999.0,94,-99.99,,,-99.99,,2013-03-20 03:43:00,
2013-03-19 20:53:00,51.0,49.0,-100.00,NNW,345,-999.0,-999.0,93,-99.99,,,-99.99,,2013-03-20 03:53:00,
2013-03-19 21:02:00,51.0,49.0,-100.00,NNW,345,-999.0,-999.0,93,-99.99,,,-99.99,,2013-03-20 04:02:00,
2013-03-19 21:12:00,51.0,49.0,-100.00,NNW,345,-999.0,-999.0,93,-99.99,,,-99.99,,2013-03-20 04:12:00,
2013-03-19 21:22:00,51.0,49.0,-100.00,NNW,345,-999.0,-999.0,93,-99.99,,,-99.99,,2013-03-20 04:22:00,
2013-03-19 21:52:00,53.0,50.0,-100.00,WSW,255,-999.0,-999.0,90,-99.99,,,-99.99,,2013-03-20 04:52:00,
2013-03-19 22:02:00,53.0,50.0,-100.00,WSW,255,-999.0,-999.0,90,-99.99,,,-99.99,,2013-03-20 05:02:00,
2013-03-19 22:12:00,53.0,50.0,-100.00,WSW,255,-999.0,-999.0,90,-99.99,,,-99.99,,2013-03-20 05:12:00,
2013-03-19 22:22:00,53.0,50.0,-100.00,North,360,-999.0,-999.0,91,-99.99,,,-99.99,,2013-03-20 05:22:00,
2013-03-19 22:32:00,53.0,50.0,-100.00,North,360,-999.0,-999.0,91,-99.99,,,-99.99,,2013-03-20 05:32:00,
2013-03-19 22:42:00,53.0,50.0,-100.00,North,360,-999.0,-999.0,91,-99.99,,,-99.99,,2013-03-20 05:42:00,
2013-03-19 22:52:00,53.0,50.0,-100.00,NW,315,-999.0,-999.0,90,-99.99,,,-99.99,,2013-03-20 05:52:00,
2013-03-19 23:02:00,53.0,50.0,-100.00,NW,315,-999.0,-999.0,90,-99.99,,,-99.99,,2013-03-20 06:02:00,
2013-03-19 23:12:00,53.0,50.0,-100.00,NW,315,-999.0,-999.0,90,-99.99,,,-99.99,,2013-03-20 06:12:00,
2013-03-19 23:22:00,54.0,50.0,-100.00,North,360,-999.0,-999.0,86,-99.99,,,-99.99,,2013-03-20 06:22:00,
2013-03-19 23:32:00,54.0,50.0,-100.00,North,360,-999.0,-999.0,86,-99.99,,,-99.99,,2013-03-20 06:32:00,
2013-03-19 23:43:00,54.0,50.0,-100.00,North,360,-999.0,-999.0,86,-99.99,,,-99.99,,2013-03-20 06:43:00,
2013-03-19 23:52:00,55.0,51.0,-100.00,North,360,-999.0,-999.0,85,-99.99,,,-99.99,,2013-03-20 06:52:00,